Regional Weather Roundup
Issued by NWS

Home | Current Version | Previous Version | Text Only | Print | Product List | Glossary Off
Versions: 1 2 3 4 5 6 7 8 9 10 11 12 13 14 15 16 17 18 19 20 21 22 23 24 25 26 27 28 29 30 31 32 33 34 35 36 37 38 39 40 41 42 43 44 45 46 47 48 49 50

000
ASUS43 KTOP 190259
RWRKS

WEATHER ROUNDUP FOR KANSAS
NATIONAL WEATHER SERVICE GOODLAND KS
900 PM CST SAT NOV 18 2017

NOTE:  "FAIR" INDICATES FEW OR NO CLOUDS BELOW 12,000 FEET WITH NO
SIGNIFICANT WEATHER AND/OR OBSTRUCTIONS TO VISIBILITY.

KSZ001>006-013>018-027>032-041>047-190400-
NORTHWEST KANSAS

CITY           SKY/WX    TMP DP  RH WIND       PRES   REMARKS
GOODLAND       CLEAR     26  15  63 W8        30.26R
HAYS           CLEAR     33  21  61 NW9       30.27R
HILL CITY      CLEAR     31  22  69 W5        30.27R
RUSSELL        CLEAR     34  24  67 NW7       30.26R
$$

KSZ061>065-074>080-084>089-190400-
SOUTHWEST KANSAS

CITY           SKY/WX    TMP DP  RH WIND       PRES   REMARKS
DODGE CITY     CLEAR     31  16  54 NW8       30.29R
GARDEN CITY    CLEAR     36  15  42 NW5       30.29R
GREAT BEND     CLEAR     31  25  78 W7        30.27R
LIBERAL        CLEAR     27  14  58 W6        30.31S
$$

KSZ066>073-081>083-090>101-190400-
SOUTHEAST KANSAS

CITY           SKY/WX    TMP DP  RH WIND       PRES   REMARKS
CHANUTE        CLEAR     43  29  57 NW9       30.21R
COFFEYVILLE    CLEAR     42  31  64 NW6       30.22R
HUTCHINSON     CLEAR     33  24  69 W6        30.26R
MEDICINE LODGE   N/A     36  22  56 W3        30.28R
NEWTON         CLEAR     38  24  57 NW8       30.25R
PARSONS        CLEAR     38  30  73 NW5       30.22R
WICHITA INTL   CLEAR     39  26  59 NW8       30.25R
WICHITA JABRA  CLEAR     42  25  50 NW9       30.24R
WICHITA MCCONL CLEAR     44  23  43 NW9       30.25R
WINFIELD       CLEAR     38  26  62 NW8       30.26R
$$

KSZ007>012-019>026-033>040-048>060-102>105-190400-
NORTHEAST KANSAS

CITY           SKY/WX    TMP DP  RH WIND       PRES   REMARKS
CONCORDIA      CLEAR     37  25  61 W6        30.23R
EMPORIA        CLEAR     41  26  55 NW7       30.21R
LAWRENCE       CLEAR     37  28  70 NW10      30.19R WCI  30
MANHATTAN      CLEAR     41  26  55 VRB3      30.23R
OLATHE IND     CLEAR     40  27  59 NW12      30.17R WCI  33
OLATHE EXE     CLEAR     42  26  53 NW10      30.16R
SALINA         CLEAR     37  25  61 W8        30.26R
TOPEKA BILLARD CLEAR     40  28  62 NW7       30.20R
TOPEKA FORBES  CLEAR     37  27  67 NW9       30.19R
$$




USA.gov is the U.S. government's official web portal to all federal, state and local government web resources and services.